Tracking 25648 objects as of 18-May-2022
HD Live streaming from Space Station
objects crossing your sky now

SATCOM 3 DEB

Track SATCOM 3 DEB now!


NORAD ID: 29002
Int'l Code: 1979-101E
Perigee: 8,354.8 km
Apogee: 35,614.4 km
Inclination: 8.4 °
Period: 792.0 minutes
Semi major axis: 28355 km
RCS: 0.0631 m2 (small)
Launch date: December 7, 1979
Source: United States (US)
Launch site: AIR FORCE EASTERN TEST RANGE (AFETR)

Note: This is SATELLITE DEBRIS
aabbcc
Your satellite tracking list
Your tracking list is empty




NASA's NSSDC Master Catalog

Two Line Element Set (TLE):
1 29002U 79101E   22137.20914963 -.00000099  00000-0  00000-0 0  9999
2 29002   8.4175 251.4809 4806726 151.4813 248.9028  1.81821184108348
Source of the keplerian elements: AFSPC